EW1783 Weather Reports


Display with metric or nautical units.
time (UTC)temp
F
wind
direction
speed
MPH
gust
MPH
rain 1hr
in
rain 24hr
in
rain mn
in
humidity
%
barometer
mb
20260507160032 62 73 0.0 1.0 0.00 0.02 0.00 45 1009.1
20260507154530 61 79 0.0 5.0 0.00 0.02 0.00 47 1009.1
20260507153027 61 56 0.0 7.0 0.00 0.02 0.00 47 1009.3
20260507151529 61 74 0.0 0.0 0.00 0.02 0.00 45 1009.5
20260507150024 61 257 0.0 0.0 0.00 0.02 0.00 48 1010.0
20260507144529 61 355 0.0 1.0 0.00 0.04 0.00 47 1010.2
20260507143022 61 209 0.0 0.0 0.00 0.04 0.00 48 1010.4
20260507141519 59 259 0.0 1.0 0.00 0.04 0.00 51 1010.4
20260507140017 59 319 0.0 0.0 0.00 0.04 0.00 51 1010.6
20260507134514 58 255 0.0 1.0 0.00 0.06 0.00 57 1010.8
20260507133011 57 254 0.0 1.0 0.00 0.06 0.00 55 1010.9
20260507131520 56 105 0.0 0.0 0.00 0.06 0.00 60 1010.8
20260507130006 54 234 0.0 0.0 0.00 0.06 0.00 65 1011.1
20260507124505 54 252 0.0 0.0 0.00 0.09 0.00 64 1011.2
20260507123004 53 251 0.0 0.0 0.00 0.09 0.00 65 1011.0
20260507121503 53 65 0.0 1.0 0.00 0.09 0.00 66 1010.9
20260507120002 52 285 0.0 0.0 0.00 0.09 0.00 69 1010.8
20260507114502 52 73 0.0 0.0 0.00 0.12 0.00 69 1010.8
20260507113100 51 73 0.0 0.0 0.00 0.12 0.00 68 1010.7
20260507111600 51 73 0.0 0.0 0.00 0.12 0.00 71 1010.8
20260507110058 51 73 0.0 0.0 0.00 0.12 0.00 66 1010.5
20260507104556 51 73 0.0 0.0 0.00 0.12 0.00 67 1010.3
20260507103055 51 73 0.0 0.0 0.00 0.12 0.00 67 1010.0
20260507101559 51 280 0.0 0.0 0.00 0.12 0.00 66 1010.1
20260507100056 52 280 0.0 0.0 0.00 0.12 0.00 67 1009.7
20260507094548 52 329 0.0 0.0 0.00 0.12 0.00 68 1009.4
20260507093046 52 25 0.0 0.0 0.00 0.12 0.00 69 1009.5
20260507091545 52 24 0.0 0.0 0.00 0.12 0.00 69 1009.7
20260507090047 53 24 0.0 0.0 0.00 0.12 0.00 68 1009.6
20260507084547 53 318 0.0 0.0 0.00 0.12 0.00 71 1009.6
20260507083052 53 9 0.0 0.0 0.00 0.12 0.00 76 1009.5
20260507081538 53 9 0.0 0.0 0.00 0.12 0.00 77 1009.3
20260507080034 53 5 0.0 0.0 0.00 0.12 0.00 77 1009.0
20260507074534 53 32 0.0 0.0 0.00 0.12 0.00 77 1008.6
20260507073041 53 255 0.0 0.0 0.00 0.12 0.00 78 1008.7
20260507071536 53 255 0.0 0.0 0.00 0.12 0.00 79 1008.6
20260507070038 54 255 0.0 0.0 0.00 0.12 0.00 79 1009.0
20260507064535 54 255 0.0 0.0 0.00 0.12 0.00 79 1009.1
20260507063031 54 255 0.0 0.0 0.00 0.12 0.00 79 1009.1
20260507061527 55 255 0.0 0.0 0.00 0.12 0.00 78 1009.2
20260507060024 55 255 0.0 0.0 0.00 0.12 0.00 77 1009.4
20260507054526 55 255 0.0 0.0 0.00 0.12 0.00 78 1009.2
20260507053022 55 255 0.0 0.0 0.00 0.12 0.00 78 1008.9
20260507051521 55 255 0.0 0.0 0.00 0.12 0.00 79 1008.9
20260507050031 55 255 0.0 0.0 0.00 0.12 0.00 79 1008.9
20260507044518 55 255 0.0 0.0 0.00 0.12 0.00 79 1008.9
20260507043016 56 255 0.0 0.0 0.00 0.12 0.00 79 1008.5
20260507041527 56 256 0.0 0.0 0.00 0.12 0.00 79 1008.8
20260507040010 56 256 0.0 0.0 0.00 0.12 0.00 79 1009.2
20260507034515 56 256 0.0 0.0 0.00 0.12 0.12 79 1008.6
20260507033007 56 256 0.0 0.0 0.00 0.12 0.12 79 1008.6
20260507031505 56 256 0.0 0.0 0.00 0.12 0.12 79 1008.7
20260507030003 57 256 0.0 0.0 0.00 0.12 0.12 79 1008.9
20260507024632 57 260 0.0 0.0 0.00 0.12 0.12 79 1008.6
20260507023058 57 288 0.0 1.0 0.00 0.12 0.12 78 1008.3
20260507021557 58 289 0.0 0.0 0.00 0.12 0.12 78 1008.2
20260507020108 59 259 0.0 0.0 0.00 0.12 0.12 78 1008.2
20260507014605 59 132 0.0 0.0 0.00 0.12 0.12 77 1008.2
20260507013054 59 293 0.0 0.0 0.00 0.12 0.12 77 1008.1
20260507011552 60 211 0.0 0.0 0.00 0.12 0.12 78 1007.8
20260507010049 60 289 0.0 0.0 0.00 0.12 0.12 78 1007.7
20260507004548 61 16 0.0 0.0 0.00 0.12 0.12 78 1008.2
20260507003045 61 17 0.0 0.0 0.00 0.12 0.12 78 1007.8
20260507001546 61 182 0.0 0.0 0.00 0.12 0.12 82 1007.6
20260507000042 62 309 0.0 0.0 0.00 0.12 0.12 83 1007.3
20260506234550 62 246 0.0 0.0 0.00 0.12 0.12 83 1007.2
20260506233038 63 235 0.0 0.0 0.00 0.12 0.12 83 1006.4
20260506231548 64 281 0.0 0.0 0.00 0.12 0.12 84 1006.2
20260506230051 64 321 0.0 0.0 0.00 0.12 0.12 84 1006.1
20260506224538 65 307 0.0 0.0 0.00 0.12 0.12 83 1006.1
20260506223048 66 284 0.0 0.0 0.00 0.12 0.12 83 1006.1
20260506221535 67 195 0.0 0.0 0.00 0.12 0.12 84 1005.6
20260506220036 67 42 0.0 0.0 0.00 0.12 0.12 83 1005.7
20260506214534 67 16 0.0 0.0 0.00 0.12 0.12 86 1005.2
20260506213042 67 15 0.0 2.0 0.00 0.12 0.12 86 1005.5
20260506211547 67 303 0.0 0.0 0.00 0.12 0.12 87 1005.1
20260506210035 67 196 0.0 0.0 0.00 0.12 0.12 85 1004.5
20260506204534 67 109 0.0 0.0 0.00 0.12 0.12 86 1004.5
20260506203032 66 167 0.0 0.0 0.00 0.12 0.12 87 1004.4
20260506201535 66 147 0.0 0.0 0.00 0.12 0.12 89 1004.4
20260506200029 65 114 0.0 0.0 0.00 0.12 0.12 89 1004.4
20260506194530 65 114 0.0 0.0 0.00 0.12 0.12 89 1004.6
20260506193026 66 126 0.0 0.0 0.01 0.12 0.12 88 1004.6
20260506191526 66 117 0.0 0.0 0.01 0.12 0.12 87 1004.8
20260506190024 67 141 0.0 0.0 0.01 0.12 0.12 87 1004.7
20260506184522 67 141 0.0 0.0 0.01 0.12 0.12 85 1004.8
20260506183030 67 142 0.0 0.0 0.01 0.11 0.11 85 1005.0
20260506181521 66 122 0.0 0.0 0.01 0.11 0.11 86 1005.1
20260506180021 66 266 0.0 0.0 0.01 0.11 0.11 85 1005.1
20260506174520 67 173 0.0 0.0 0.01 0.11 0.11 83 1004.9
20260506173020 68 148 0.0 0.0 0.00 0.10 0.10 78 1004.9
20260506171526 69 101 0.0 0.0 0.00 0.10 0.10 76 1004.8
20260506170019 69 171 0.0 0.0 0.00 0.10 0.10 74 1004.7
20260506164518 70 144 0.0 0.0 0.00 0.10 0.10 75 1004.7
20260506163016 69 136 0.0 5.0 0.00 0.10 0.10 75 1004.7
20260506161515 68 82 0.0 0.0 0.00 0.10 0.10 77 1004.7